TVS2066 LKPR-LEPA

Flight info

Callsign TVS2066
Flight time N/A
Altitude 38000
Route DOBEN DCT RUDAP P31 DOSEL DCT EBEDA DCT BADVI DCT BERAS DCT OLPIX/N0439F370 DCT EKPEB DCT PIDAD DCT TALEP DCT RARQU DCT BALEN/N0412F290 UT250 RIXOT
Aircraft B738/M-SDFGHIJ1LORVWXYZ/LB1

Departure

Time 2026-05-01 14:08
Airport Václav Havel Airport Prague (LKPR)

Arrival

Time N/A
Airport Palma de Mallorca Airport (LEPA)
Time Latitude Longitude Altitude Speed Heading
2026-05-01 13:31 50.10591 14.26279 1171 ft 0 kts 35°
2026-05-01 13:55 50.10580 14.26268 1172 ft 3 kts 34°
2026-05-01 13:56 50.10564 14.26250 1168 ft 3 kts 32°
2026-05-01 13:56 50.10548 14.26237 1169 ft 2 kts 12°
2026-05-01 13:56 50.10538 14.26237 1169 ft 1 kts 323°
2026-05-01 13:56 50.10530 14.26253 1170 ft 3 kts 296°
2026-05-01 13:57 50.10528 14.26259 1170 ft 3 kts 294°
2026-05-01 13:57 50.10533 14.26239 1170 ft 1 kts 286°
2026-05-01 13:57 50.10534 14.26230 1169 ft 0 kts 285°
2026-05-01 14:00 50.10539 14.26181 1171 ft 9 kts 272°
2026-05-01 14:00 50.10524 14.26051 1172 ft 11 kts 259°
2026-05-01 14:00 50.10505 14.25998 1172 ft 5 kts 199°
2026-05-01 14:00 50.10477 14.26023 1174 ft 5 kts 131°
2026-05-01 14:01 50.10449 14.26082 1170 ft 9 kts 126°
2026-05-01 14:01 50.10394 14.26195 1175 ft 16 kts 127°
2026-05-01 14:01 50.10318 14.26354 1173 ft 20 kts 127°
2026-05-01 14:01 50.10228 14.26540 1176 ft 23 kts 127°
2026-05-01 14:02 50.10130 14.26741 1179 ft 23 kts 128°
2026-05-01 14:02 50.10035 14.26936 1192 ft 22 kts 126°
2026-05-01 14:02 50.09944 14.27128 1199 ft 22 kts 127°
2026-05-01 14:02 50.09851 14.27312 1202 ft 22 kts 133°
2026-05-01 14:03 50.09744 14.27478 1205 ft 22 kts 135°
2026-05-01 14:03 50.09633 14.27650 1208 ft 23 kts 135°
2026-05-01 14:03 50.09523 14.27819 1212 ft 22 kts 135°
2026-05-01 14:03 50.09418 14.27981 1214 ft 21 kts 135°
2026-05-01 14:04 50.09314 14.28140 1214 ft 21 kts 135°
2026-05-01 14:04 50.09214 14.28281 1211 ft 16 kts 158°
2026-05-01 14:04 50.09138 14.28255 1210 ft 0 kts 218°
2026-05-01 14:05 50.09130 14.28245 1210 ft 4 kts 218°
2026-05-01 14:06 50.09100 14.28173 1209 ft 12 kts 253°
2026-05-01 14:06 50.09115 14.28024 1208 ft 14 kts 303°
2026-05-01 14:06 50.09130 14.27993 1209 ft 0 kts 305°
2026-05-01 14:07 50.09200 14.27844 1210 ft 50 kts 307°
2026-05-01 14:07 50.09551 14.27118 1206 ft 117 kts 307°
2026-05-01 14:07 50.10153 14.25862 1209 ft 169 kts 309°
2026-05-01 14:08 50.11665 14.22760 2816 ft 173 kts 307°
2026-05-01 14:08 50.12372 14.21256 3619 ft 181 kts 308°
2026-05-01 14:08 50.13186 14.19554 3989 ft 207 kts 308°
2026-05-01 14:08 50.14076 14.17732 4400 ft 223 kts 308°
2026-05-01 14:09 50.15040 14.15733 4833 ft 243 kts 306°
2026-05-01 14:09 50.15761 14.13194 5160 ft 271 kts 278°
2026-05-01 14:09 50.15532 14.10282 6022 ft 276 kts 248°
2026-05-01 14:09 50.14403 14.07829 6704 ft 288 kts 217°
2026-05-01 14:10 50.12585 14.06603 7529 ft 286 kts 185°
2026-05-01 14:10 50.10606 14.06087 8248 ft 296 kts 192°
2026-05-01 14:10 50.08594 14.05117 8945 ft 303 kts 196°
2026-05-01 14:10 50.06627 14.04027 10062 ft 297 kts 198°
2026-05-01 14:11 50.04685 14.02817 10779 ft 303 kts 199°
2026-05-01 14:11 50.00624 14.00406 11737 ft 330 kts 198°
2026-05-01 14:11 49.98462 13.98986 12282 ft 342 kts 205°
2026-05-01 14:12 49.96360 13.97086 12749 ft 358 kts 210°
2026-05-01 14:12 49.94248 13.94923 13310 ft 368 kts 212°
2026-05-01 14:12 49.92108 13.92678 14016 ft 373 kts 212°
2026-05-01 14:12 49.89940 13.90425 14680 ft 377 kts 211°
2026-05-01 14:13 49.87741 13.88179 15351 ft 380 kts 211°
2026-05-01 14:13 49.86269 13.86695 15807 ft 382 kts 211°
2026-05-01 14:13 49.83260 13.83701 16680 ft 387 kts 211°
2026-05-01 14:13 49.80975 13.81449 17331 ft 391 kts 210°
2026-05-01 14:14 49.78669 13.79188 17975 ft 394 kts 210°
2026-05-01 14:14 49.76340 13.76910 18612 ft 398 kts 210°
2026-05-01 14:14 49.73985 13.74613 19165 ft 402 kts 211°
2026-05-01 14:14 49.71611 13.72299 19714 ft 405 kts 211°
2026-05-01 14:15 49.69249 13.69999 20266 ft 408 kts 211°
2026-05-01 14:15 49.66840 13.67656 20808 ft 411 kts 211°
2026-05-01 14:15 49.64405 13.65292 21335 ft 415 kts 211°
2026-05-01 14:15 49.61951 13.62910 21865 ft 419 kts 211°
2026-05-01 14:16 49.59475 13.60511 22373 ft 422 kts 211°
2026-05-01 14:16 49.56981 13.58097 22896 ft 425 kts 211°
2026-05-01 14:16 49.54462 13.55661 23389 ft 429 kts 211°
2026-05-01 14:16 49.51925 13.53211 23890 ft 433 kts 211°
2026-05-01 14:17 49.49363 13.50740 24314 ft 436 kts 211°
2026-05-01 14:17 49.46786 13.48258 24753 ft 438 kts 211°
2026-05-01 14:17 49.44200 13.45770 25186 ft 440 kts 211°
2026-05-01 14:17 49.41629 13.43300 25591 ft 443 kts 211°
2026-05-01 14:18 49.39009 13.40785 25993 ft 446 kts 211°
2026-05-01 14:18 49.36374 13.38260 26395 ft 448 kts 211°
2026-05-01 14:18 49.33722 13.35721 26786 ft 450 kts 211°
2026-05-01 14:18 49.31959 13.34034 27043 ft 452 kts 212°
2026-05-01 14:19 49.28378 13.30613 27544 ft 455 kts 212°
2026-05-01 14:19 49.25679 13.28040 27925 ft 458 kts 212°
2026-05-01 14:19 49.22934 13.25554 28292 ft 460 kts 207°
2026-05-01 14:19 49.20067 13.23370 28646 ft 462 kts 205°
2026-05-01 14:20 49.17153 13.21262 28984 ft 464 kts 205°
2026-05-01 14:20 49.11311 13.16953 29646 ft 469 kts 206°
2026-05-01 14:20 49.08377 13.14761 29964 ft 471 kts 206°
2026-05-01 14:21 49.05465 13.12589 30263 ft 473 kts 206°
2026-05-01 14:21 49.02501 13.10383 30538 ft 475 kts 206°
2026-05-01 14:21 48.99529 13.08174 30802 ft 477 kts 206°
2026-05-01 14:22 48.93542 13.03734 31349 ft 480 kts 206°
2026-05-01 14:22 48.90539 13.01512 31611 ft 481 kts 205°
2026-05-01 14:22 48.87532 12.99289 31927 ft 480 kts 206°
2026-05-01 14:22 48.84528 12.97071 32306 ft 479 kts 205°
2026-05-01 14:23 48.81541 12.94869 32701 ft 476 kts 205°
2026-05-01 14:23 48.78563 12.92676 33072 ft 475 kts 205°
2026-05-01 14:23 48.75598 12.90491 33384 ft 474 kts 206°
2026-05-01 14:23 48.72749 12.87969 33666 ft 475 kts 215°
2026-05-01 14:24 48.70189 12.84822 33984 ft 473 kts 223°
2026-05-01 14:24 48.67801 12.81417 34342 ft 471 kts 224°
2026-05-01 14:24 48.65432 12.77998 34616 ft 470 kts 224°
2026-05-01 14:24 48.63076 12.74664 34841 ft 470 kts 223°
2026-05-01 14:25 48.60666 12.71320 35084 ft 470 kts 223°
2026-05-01 14:25 48.58256 12.67998 35353 ft 469 kts 223°
2026-05-01 14:25 48.55854 12.64676 35609 ft 468 kts 223°
2026-05-01 14:25 48.53456 12.61353 35832 ft 468 kts 223°
2026-05-01 14:26 48.51057 12.58027 36056 ft 468 kts 223°
2026-05-01 14:26 48.46272 12.51410 36526 ft 466 kts 223°
2026-05-01 14:26 48.43879 12.48110 36750 ft 466 kts 223°
2026-05-01 14:27 48.41461 12.44879 36949 ft 466 kts 221°
2026-05-01 14:27 48.38992 12.41727 37142 ft 466 kts 220°
2026-05-01 14:27 48.36505 12.38603 37370 ft 465 kts 220°
2026-05-01 14:28 48.31586 12.32412 37754 ft 464 kts 221°
2026-05-01 14:28 48.29123 12.29292 37938 ft 464 kts 221°
2026-05-01 14:28 48.26662 12.26166 38128 ft 463 kts 221°
2026-05-01 14:28 48.24206 12.23046 38319 ft 463 kts 221°
2026-05-01 14:29 48.19270 12.16792 38343 ft 466 kts 220°
2026-05-01 14:30 48.10724 12.10234 38348 ft 461 kts 195°
2026-05-01 14:30 48.07629 12.08958 38340 ft 461 kts 195°
2026-05-01 14:31 47.98377 12.05184 38335 ft 459 kts 195°
2026-05-01 14:31 47.92272 12.02615 38327 ft 459 kts 195°
2026-05-01 14:32 47.86129 12.00013 38326 ft 459 kts 195°
2026-05-01 14:32 47.79965 11.97411 38323 ft 461 kts 195°
2026-05-01 14:33 47.73783 11.94811 38307 ft 463 kts 195°
2026-05-01 14:33 47.67608 11.92019 38319 ft 465 kts 198°
2026-05-01 14:34 47.61484 11.89047 38302 ft 467 kts 198°
2026-05-01 14:34 47.55295 11.86078 38301 ft 468 kts 198°
2026-05-01 14:35 47.49083 11.83141 38299 ft 469 kts 198°
2026-05-01 14:35 47.42861 11.80212 38269 ft 470 kts 198°
2026-05-01 14:36 47.36643 11.77299 38280 ft 469 kts 196°
2026-05-01 14:36 47.30286 11.75487 38286 ft 469 kts 188°
2026-05-01 14:37 47.23833 11.74098 38265 ft 469 kts 188°
2026-05-01 14:37 47.17398 11.72655 38265 ft 467 kts 188°
2026-05-01 14:38 47.10976 11.71166 38273 ft 466 kts 188°
2026-05-01 14:38 47.04575 11.69685 38266 ft 465 kts 188°
2026-05-01 14:39 46.98410 11.67021 38268 ft 463 kts 205°
2026-05-01 14:39 46.92621 11.63041 38263 ft 462 kts 206°
2026-05-01 14:40 46.86802 11.59042 38268 ft 462 kts 205°
2026-05-01 14:40 46.80964 11.55129 38245 ft 462 kts 205°
2026-05-01 14:41 46.75114 11.51238 38259 ft 463 kts 205°
2026-05-01 14:41 46.69290 11.47342 38252 ft 464 kts 208°
2026-05-01 14:42 46.63824 11.42401 38251 ft 464 kts 215°
2026-05-01 14:42 46.58452 11.37149 38229 ft 466 kts 215°
2026-05-01 14:43 46.53047 11.31901 38231 ft 468 kts 215°
2026-05-01 14:43 46.47619 11.26697 38244 ft 467 kts 215°
2026-05-01 14:44 46.42190 11.21528 38225 ft 466 kts 215°
2026-05-01 14:44 46.36771 11.16385 38368 ft 465 kts 215°
2026-05-01 14:44 46.34067 11.13823 38363 ft 464 kts 215°
2026-05-01 14:45 46.26019 11.06214 38371 ft 462 kts 215°
2026-05-01 14:46 46.20648 11.01149 38371 ft 460 kts 215°
2026-05-01 14:46 46.12621 10.93603 38358 ft 458 kts 215°
2026-05-01 14:47 46.07283 10.88600 38346 ft 457 kts 215°
2026-05-01 14:48 45.99312 10.81149 38357 ft 458 kts 215°
2026-05-01 14:48 45.91283 10.73671 38345 ft 459 kts 215°
2026-05-01 14:49 45.80535 10.63701 38363 ft 461 kts 215°
2026-05-01 14:50 45.69765 10.53758 38361 ft 460 kts 215°
2026-05-01 14:51 45.61727 10.46366 38346 ft 460 kts 215°
2026-05-01 14:52 45.53630 10.38949 38345 ft 459 kts 215°
2026-05-01 14:53 45.45558 10.31577 38343 ft 459 kts 215°
2026-05-01 14:53 45.40220 10.26716 38346 ft 458 kts 215°
2026-05-01 14:54 45.34850 10.21837 38349 ft 458 kts 215°
2026-05-01 14:54 45.29480 10.16970 38338 ft 458 kts 215°
2026-05-01 14:55 45.24118 10.12121 38340 ft 457 kts 215°
2026-05-01 14:55 45.18745 10.07273 38334 ft 457 kts 215°
2026-05-01 14:56 45.13374 10.02438 38328 ft 457 kts 215°
2026-05-01 14:56 45.08005 9.97615 38329 ft 457 kts 215°
2026-05-01 14:57 45.02632 9.92799 38327 ft 457 kts 215°
2026-05-01 14:57 44.94595 9.85617 38319 ft 458 kts 215°
2026-05-01 14:58 44.89203 9.80811 38322 ft 459 kts 215°
2026-05-01 14:58 44.83798 9.76006 38319 ft 460 kts 215°
2026-05-01 14:59 44.78383 9.71202 38328 ft 460 kts 215°
2026-05-01 14:59 44.72957 9.66398 38327 ft 461 kts 215°
2026-05-01 15:00 44.64792 9.59192 38321 ft 462 kts 214°
2026-05-01 15:01 44.59374 9.54423 38320 ft 463 kts 214°
2026-05-01 15:01 44.53915 9.49628 38304 ft 463 kts 214°
2026-05-01 15:02 44.48459 9.44848 38312 ft 463 kts 214°
2026-05-01 15:02 44.43000 9.40075 38299 ft 462 kts 214°
2026-05-01 15:03 44.37555 9.35326 38294 ft 461 kts 214°
2026-05-01 15:03 44.33036 9.31392 38296 ft 461 kts 214°
2026-05-01 15:04 44.26715 9.25900 38298 ft 460 kts 214°
2026-05-01 15:04 44.21275 9.21185 38286 ft 460 kts 214°
2026-05-01 15:05 44.15838 9.16484 38290 ft 460 kts 214°
2026-05-01 15:05 44.11318 9.12583 38291 ft 460 kts 214°
2026-05-01 15:06 44.05881 9.07901 38288 ft 460 kts 214°
2026-05-01 15:06 44.00443 9.03227 38293 ft 459 kts 214°
2026-05-01 15:07 43.95005 8.98563 38292 ft 459 kts 214°
2026-05-01 15:07 43.89563 8.93907 38292 ft 459 kts 214°
2026-05-01 15:08 43.84163 8.89296 38291 ft 459 kts 214°
2026-05-01 15:08 43.78724 8.84661 38292 ft 459 kts 214°
2026-05-01 15:09 43.73291 8.80041 38294 ft 459 kts 214°
2026-05-01 15:09 43.67853 8.75426 38294 ft 458 kts 214°
2026-05-01 15:10 43.62012 8.71882 38306 ft 463 kts 195°
2026-05-01 15:10 43.55587 8.71059 38313 ft 466 kts 180°
2026-05-01 15:10 43.52339 8.71159 38296 ft 467 kts 180°
2026-05-01 15:11 43.49109 8.71006 38275 ft 464 kts 192°
2026-05-01 15:11 43.43320 8.67734 38291 ft 451 kts 220°
2026-05-01 15:12 43.38688 8.62042 38291 ft 447 kts 226°
2026-05-01 15:12 43.31785 8.53383 38291 ft 449 kts 226°
2026-05-01 15:14 43.20128 8.39041 38290 ft 451 kts 226°
2026-05-01 15:14 43.13132 8.30479 38288 ft 452 kts 226°
2026-05-01 15:15 43.03755 8.19043 38284 ft 451 kts 226°
2026-05-01 15:16 42.94393 8.07674 38279 ft 449 kts 226°
2026-05-01 15:18 42.82753 7.93604 38279 ft 446 kts 225°
2026-05-01 15:19 42.73518 7.82493 38268 ft 443 kts 225°
2026-05-01 15:19 42.66594 7.74193 38268 ft 442 kts 225°
2026-05-01 15:20 42.59688 7.65940 38266 ft 440 kts 225°
2026-05-01 15:21 42.55093 7.60462 38259 ft 439 kts 225°
2026-05-01 15:21 42.50499 7.54998 38262 ft 439 kts 225°
2026-05-01 15:22 42.43650 7.46870 38265 ft 438 kts 225°
2026-05-01 15:22 42.39067 7.41445 38262 ft 438 kts 225°
2026-05-01 15:23 42.34482 7.36029 38262 ft 437 kts 225°
2026-05-01 15:23 42.29901 7.30629 38255 ft 437 kts 224°
2026-05-01 15:24 42.25319 7.25238 38263 ft 437 kts 224°
2026-05-01 15:24 42.20764 7.19889 38264 ft 437 kts 224°
2026-05-01 15:25 42.16180 7.14518 38250 ft 437 kts 224°
2026-05-01 15:25 42.11587 7.09145 38261 ft 437 kts 224°
2026-05-01 15:26 42.06996 7.03785 38266 ft 437 kts 224°
2026-05-01 15:26 42.02400 6.98431 38260 ft 437 kts 224°
2026-05-01 15:27 41.97876 6.92981 38267 ft 436 kts 225°
2026-05-01 15:28 41.91210 6.84748 38259 ft 436 kts 225°
2026-05-01 15:28 41.86739 6.79259 38267 ft 435 kts 225°
2026-05-01 15:29 41.80028 6.71069 38267 ft 435 kts 225°
2026-05-01 15:30 41.71116 6.60237 38267 ft 433 kts 225°
2026-05-01 15:31 41.57736 6.44053 38265 ft 432 kts 224°
2026-05-01 15:32 41.48827 6.33328 38260 ft 431 kts 224°
2026-05-01 15:34 41.35493 6.17354 38261 ft 430 kts 224°